Timestamp[UTC];2m Lufttemperatur [degC] (tas);Stations-Luftdruck [Pa] (ps);relative Luftfeuchtigkeit [%] (hurs);spezifische Luftfeuchtigkeit [kg/kg] (huss);Niederschlagsmenge [mm] (pr);Windgeschwindigkeit in 2m [m/s] (sfcWind);Windrichtung [deg];maximale Windgeschwindigkeit [m/s] (wsgsmax);u-Windkomponente [m/s] (uas);v-Windkomponente [m/s] (vas);Sonneneinstrahlung [W/m2];Blitzrate [n];Blitzentfernung [km];Bodenfeuchte in 5cm Tiefe [vol%];Bodenfeuchte in 15cm Tiefe [vol%];Bodenfeuchte in 30cm Tiefe [vol%];Bodenfeuchte in 60cm Tiefe [vol%];Bodentemperatur in 5cm Tiefe [degC];Bodentemperatur in 15cm Tiefe [degC];Bodentemperatur in 30cm Tiefe [degC];Bodentemperatur in 60cm Tiefe [degC];Matrixpotential in 30cm Tiefe [kPa];Bodenfeuchte aus CRNS [vol%] (mrso);Neutronen Anzahl [N/h]
2022-04-01 00:00:00;1,5;98147;97;0,0042;0,15;1,1;122;2,1;1,1;0,02;0;0;0;37,5;31,9;27,3;34,2;6,7;7,3;7,7;7,5;-10,1;34,0;1624
2022-04-01 01:00:00;1,4;98155;98;0,0042;0,18;1,1;179;1,9;1,06;-0,02;0;0;0;37,7;31,9;27,3;34,2;6,6;7,2;7,6;7,4;-10,1;34,1;1665
2022-04-01 02:00:00;1,2;98162;98;0,0041;0,12;1,5;345;2,3;1,41;-0,37;0;0;0;37,8;31,9;27,3;34,2;6,5;7,1;7,6;7,4;-10,1;34,2;1667
2022-04-01 03:00:00;1,7;98195;98;0,0043;0,07;1,6;182;3,1;1,52;0,15;0;0;0;37,9;32,0;27,3;34,2;6,4;7,0;7,5;7,5;-10,1;34,1;1635
2022-04-01 04:00:00;2,0;98237;96;0,0043;0,07;2,8;30;5,6;2,4;1,42;0;0;0;38,0;32,0;27,3;34,2;6,4;6,9;7,5;7,4;-10,1;34,2;1606
2022-04-01 05:00:00;1,6;98326;94;0,0041;0,0;3,2;16;5,8;3,01;0,91;0;0;0;38,0;32,0;27,3;34,2;6,3;6,9;7,4;7,4;-10,1;34,1;1615
2022-04-01 06:00:00;1,3;98408;92;0,0039;0,0;3,2;16;6,3;3,07;0,94;7;0;0;38,0;32,0;27,3;34,2;6,2;6,8;7,4;7,4;-10,1;34,2;1570
2022-04-01 07:00:00;1,0;98480;92;0,0038;0,0;3,5;17;7,3;3,36;1,08;20;0;0;37,9;32,1;27,3;34,2;6,0;6,7;7,3;7,4;-10,1;34,4;1666
2022-04-01 08:00:00;0,8;98558;91;0,0038;0,0;3,3;12;6,1;3,24;0,69;32;0;0;37,8;32,1;27,3;34,2;5,9;6,6;7,3;7,4;-10,1;34,2;1669
2022-04-01 09:00:00;1,1;98628;89;0,0037;0,02;3,6;92;6,7;3,6;0,18;70;0;0;37,8;32,1;27,3;34,2;5,8;6,5;7,2;7,4;-10,1;34,5;1623
2022-04-01 10:00:00;1,1;98686;88;0,0037;0,0;4,3;5;8,2;4,27;0,42;104;0;0;37,7;32,2;27,3;34,2;5,8;6,5;7,2;7,4;-10,1;34,5;1581
2022-04-01 11:00:00;1,0;98738;85;0,0035;0,0;4,4;10;8,9;4,35;0,86;128;0;0;37,7;32,2;27,3;34,2;5,8;6,4;7,1;7,3;-10,1;34,9;1556
2022-04-01 12:00:00;1,2;98780;82;0,0035;0,0;4,1;8;7,9;4,04;0,63;104;0;0;37,6;32,2;27,3;34,2;5,8;6,3;7,1;7,3;-10,1;35,6;1579
2022-04-01 13:00:00;1,1;98815;81;0,0034;0,0;4,0;14;7,0;3,83;0,97;75;0;0;37,5;32,2;27,3;34,2;5,7;6,3;7,0;7,3;-10,1;35,8;1525
2022-04-01 14:00:00;1,3;98860;80;0,0034;0,0;4,2;21;7,7;3,87;1,52;58;0;0;37,4;32,3;27,3;34,2;5,7;6,3;7,0;7,3;-10,1;36,0;1568
2022-04-01 15:00:00;0,7;98937;86;0,0035;0,0;4,1;15;7,4;3,91;1,06;36;0;0;37,3;32,3;27,3;34,2;5,5;6,2;6,9;7,3;-10,1;36,5;1541
2022-04-01 16:00:00;0,4;99002;93;0,0037;0,0;3,4;79;7,1;3,36;0,43;44;0;0;37,3;32,3;27,3;34,2;5,4;6,1;6,9;7,3;-10,1;37,0;1577
2022-04-01 17:00:00;0,2;99082;94;0,0037;0,0;3,3;128;6,3;3,23;0,52;16;0;0;37,2;32,3;27,3;34,2;5,3;6,0;6,8;7,2;-10,1;37,2;1507
2022-04-01 18:00:00;-0,1;99117;98;0,0037;0,0;3,3;347;5,6;3,2;-0,73;0;0;0;37,2;32,4;27,3;34,2;5,2;6,0;6,8;7,2;-10,1;37,5;1498
2022-04-01 19:00:00;-0,1;99173;99;0,0038;0,0;4,0;350;7,5;3,92;-0,63;0;0;0;37,2;32,4;27,4;34,2;5,1;5,9;6,7;7,2;-10,1;37,8;1529
2022-04-01 20:00:00;-0,2;99202;99;0,0037;0,0;4,2;352;7,8;4,18;-0,58;0;0;0;37,2;32,4;27,4;34,2;5,0;5,8;6,7;7,2;-10,1;38,2;1414
2022-04-01 21:00:00;-0,2;99228;99;0,0037;0,0;3,7;356;7,3;3,65;-0,19;0;0;0;37,2;32,4;27,4;34,2;4,9;5,7;6,6;7,2;-10,1;38,3;1495
2022-04-01 22:00:00;-0,2;99240;99;0,0037;0,0;3,7;237;7,1;3,68;-0,13;0;0;0;37,2;32,4;27,4;34,2;4,8;5,6;6,6;7,1;-10,1;38,8;1389
2022-04-01 23:00:00;-0,3;99267;99;0,0037;0,0;3,9;356;8,1;3,93;-0,28;0;0;0;37,2;32,4;27,4;34,2;4,8;5,6;6,5;7,1;-10,1;39,1;1381
2022-04-02 00:00:00;-0,3;99280;99;0,0037;0,0;3,3;356;6,7;3,28;-0,19;0;0;0;37,2;32,5;27,4;34,2;4,7;5,5;6,5;7,1;-10,1;39,5;1445
2022-04-02 01:00:00;-0,4;99292;99;0,0037;0,0;3,1;352;5,6;3,07;-0,43;0;0;0;37,3;32,5;27,4;34,2;4,7;5,4;6,4;7,1;-10,1;39,7;1487
2022-04-02 02:00:00;-0,5;99305;99;0,0037;0,0;3,4;351;6,4;3,38;-0,54;0;0;0;37,3;32,5;27,4;34,2;4,6;5,4;6,4;7,1;-10,1;39,7;1402
2022-04-02 03:00:00;-0,6;99334;98;0,0036;0,0;3,6;357;7,1;3,57;-0,14;0;0;0;37,3;32,5;27,4;34,2;4,6;5,3;6,3;7,0;-10,1;40,0;1397
2022-04-02 04:00:00;-0,7;99380;97;0,0035;0,0;3,2;143;6,0;3,21;-0,01;0;0;0;37,3;32,5;27,4;34,2;4,5;5,3;6,3;7,0;-10,1;40,3;1441
2022-04-02 05:00:00;-0,8;99442;98;0,0035;0,0;2,7;350;5,7;2,66;-0,48;16;0;0;37,3;32,5;27,4;34,2;4,5;5,2;6,2;7,0;-10,1;40,6;1416
2022-04-02 06:00:00;-0,7;99515;96;0,0035;0,0;3,0;177;5,2;2,98;-0,12;88;0;0;37,3;32,6;27,4;34,2;4,4;5,2;6,2;7,0;-10,1;40,4;1378
2022-04-02 07:00:00;-0,6;99583;98;0,0036;0,0;3,1;352;5,6;3,01;-0,42;201;0;0;37,3;32,6;27,4;34,2;4,4;5,1;6,1;7,0;-10,1;40,5;1446
2022-04-02 08:00:00;-0,3;99655;96;0,0036;0,0;2,8;347;5,1;2,74;-0,62;243;0;0;37,3;32,6;27,4;34,2;4,4;5,1;6,1;6,9;-10,1;40,9;1488
2022-04-02 09:00:00;0,7;99715;84;0,0034;0,0;2,9;93;5,7;2,86;0,1;305;0;0;37,4;32,6;27,4;34,2;4,4;5,0;6,1;6,9;-10,1;40,4;1372
2022-04-02 10:00:00;1,3;99768;78;0,0032;0,63;3,0;20;5,7;2,79;1,04;348;0;0;37,4;32,6;27,4;34,2;4,3;5,0;6,0;6,9;-10,1;40,7;1382
2022-04-02 11:00:00;2,2;99788;69;0,0031;1,39;3,8;34;7,5;3,0;2,23;483;0;0;37,5;32,6;27,4;34,2;4,3;5,0;6,0;6,9;-10,1;40,2;1348
2022-04-02 12:00:00;3,1;99807;66;0,0031;0,61;3,8;45;7,0;2,62;2,7;491;0;0;37,5;32,6;27,4;34,2;4,3;5,0;6,0;6,8;-10,1;39,4;1413
2022-04-02 13:00:00;2,5;99840;68;0,0031;0,0;3,2;8;6,5;3,2;0,44;127;0;0;37,8;32,7;27,4;34,2;4,4;4,9;5,9;6,8;-10,1;39,4;1400
2022-04-02 14:00:00;2,3;99860;73;0,0033;0,0;3,7;240;6,8;3,66;0,07;128;0;0;38,6;32,7;27,4;34,2;4,3;4,9;5,9;6,8;-10,1;39,2;1393
2022-04-02 15:00:00;2,0;99895;76;0,0034;0,0;2,5;99;4,9;2,4;0,3;60;0;0;39,5;32,9;27,4;34,2;4,3;4,9;5,9;6,8;-10,1;39,0;1347
2022-04-02 16:00:00;2,5;99934;71;0,0033;0,0;2,0;38;4,1;1,51;1,23;96;0;0;39,7;33,8;27,4;34,2;4,3;4,9;5,8;6,7;-10,1;38,9;1390
2022-04-02 17:00:00;2,4;99972;70;0,0032;0,0;1,1;152;2,5;0,68;0,33;48;0;0;39,7;34,6;27,4;34,2;4,3;4,8;5,8;6,7;-10,1;38,6;1453
2022-04-02 18:00:00;1,2;100015;78;0,0032;0,0;1,2;267;1,6;-0,05;-1,14;2;0;0;39,7;34,8;27,4;34,2;4,2;4,8;5,8;6,7;-10,1;38,4;1362
2022-04-02 19:00:00;0,4;100072;82;0,0032;0,0;1,4;277;1,8;0,17;-1,35;0;0;0;39,6;34,9;27,4;34,2;4,2;4,8;5,7;6,7;-10,1;37,9;1353
2022-04-02 20:00:00;0,1;100110;82;0,0032;0,0;1,2;296;1,8;0,57;-1,09;0;0;0;39,5;34,9;27,4;34,2;4,1;4,8;5,7;6,7;-10,1;37,6;1441
2022-04-02 21:00:00;0,5;100144;79;0,0031;0,0;1,6;332;2,5;1,39;-0,72;0;0;0;39,4;34,9;27,4;34,2;4,0;4,7;5,7;6,6;-10,1;37,7;1338
2022-04-02 22:00:00;0,6;100185;75;0,003;0,0;1,3;345;2,4;1,25;-0,32;0;0;0;39,3;34,8;27,4;34,2;4,0;4,7;5,7;6,6;-10,1;37,4;1410
2022-04-02 23:00:00;0,5;100220;77;0,003;0,0;1,5;326;2,5;1,25;-0,79;0;0;0;39,2;34,8;27,4;34,2;3,9;4,6;5,6;6,6;-10,1;36,6;1471
2022-04-03 00:00:00;0,3;100222;79;0,0031;0,0;1,0;300;1,9;0,45;-0,81;0;0;0;39,1;34,8;27,5;34,2;3,9;4,6;5,6;6,6;-10,1;36,2;1355
2022-04-03 01:00:00;-0,0;100230;83;0,0031;0,0;1,3;284;2,0;0,32;-1,28;0;0;0;39,0;34,7;27,5;34,2;3,9;4,6;5,6;6,6;-10,1;35,8;1429
2022-04-03 02:00:00;0,1;100230;82;0,0031;0,0;1,7;299;2,5;0,8;-1,46;0;0;0;38,9;34,7;27,5;34,2;3,8;4,5;5,5;6,5;-10,1;35,7;1353
2022-04-03 03:00:00;-0,1;100238;83;0,0031;0,0;2,2;294;3,3;0,9;-1,99;0;0;0;38,8;34,7;27,5;34,2;3,8;4,5;5,5;6,5;-10,1;35,6;1329
2022-04-03 04:00:00;-0,5;100260;83;0,003;0,0;2,2;293;3,3;0,91;-2,05;0;0;0;38,7;34,7;27,5;34,2;3,8;4,5;5,5;6,5;-10,1;35,1;1401
2022-04-03 05:00:00;-0,8;100310;82;0,0029;0,0;2,6;300;4,0;1,28;-2,22;12;0;0;38,7;34,6;27,5;34,2;3,7;4,4;5,5;6,5;-10,1;34,7;1378
2022-04-03 06:00:00;-0,7;100365;82;0,003;0,0;2,8;296;4,3;1,25;-2,45;88;0;0;38,6;34,6;27,5;34,2;3,7;4,4;5,4;6,5;-10,1;34,7;1403
2022-04-03 07:00:00;-0,2;100405;82;0,003;0,0;3,2;304;4,6;1,75;-2,64;187;0;0;38,5;34,6;27,5;34,2;3,7;4,3;5,4;6,5;-10,1;34,4;1432
2022-04-03 08:00:00;1,2;100452;80;0,0033;0,0;2,5;299;4,5;1,25;-2,2;437;0;0;38,5;34,6;27,6;34,2;3,8;4,3;5,4;6,4;-10,1;33,9;1378
2022-04-03 09:00:00;2,9;100480;72;0,0034;0,0;2,4;305;4,6;1,38;-1,9;524;0;0;38,7;34,6;27,6;34,2;4,2;4,4;5,4;6,4;-10,1;34,1;1358
2022-04-03 10:00:00;3,6;100480;60;0,003;0,0;3,4;314;6,3;2,37;-2,4;394;0;0;39,8;34,7;27,6;34,2;4,8;4,5;5,3;6,4;-10,1;33,7;1509
2022-04-03 11:00:00;4,4;100458;52;0,0027;0,0;2,6;347;5,4;2,55;-0,57;522;0;0;39,8;35,0;27,6;34,2;5,2;4,7;5,3;6,4;-10,1;33,7;1396
2022-04-03 12:00:00;4,7;100426;53;0,0028;0,0;1,9;193;4,3;1,15;-0,78;386;0;0;39,6;35,2;27,6;34,2;5,8;5,0;5,3;6,4;-10,1;34,1;1433
2022-04-03 13:00:00;5,4;100380;54;0,003;0,0;2,5;313;5,0;1,76;-1,74;458;0;0;39,5;35,2;27,6;34,2;6,2;5,3;5,3;6,4;-10,1;33,8;1387
2022-04-03 14:00:00;6,0;100325;52;0,003;0,0;3,3;318;5,7;2,41;-2,13;358;0;0;39,4;35,2;27,7;34,3;6,4;5,5;5,4;6,3;-10,1;33,9;1376
2022-04-03 15:00:00;5,8;100308;54;0,0031;0,0;3,1;323;5,8;2,44;-1,88;226;0;0;39,3;35,2;27,7;34,3;6,6;5,7;5,4;6,3;-10,1;33,3;1445
2022-04-03 16:00:00;5,8;100292;54;0,0031;0,0;3,2;302;5,3;1,65;-2,62;127;0;0;39,2;35,1;27,7;34,3;6,5;5,9;5,5;6,3;-10,1;33,1;1455
2022-04-03 17:00:00;5,4;100282;57;0,0032;0,0;1,9;293;3,3;0,76;-1,73;28;0;0;39,1;35,1;27,7;34,3;6,3;6,0;5,6;6,3;-10,1;33,0;1422
2022-04-03 18:00:00;4,8;100273;64;0,0034;0,0;1,8;287;4,5;0,65;-1,64;1;0;0;39,1;35,1;27,7;34,3;6,1;6,0;5,6;6,3;-10,1;32,6;1420
2022-04-03 19:00:00;4,6;100293;69;0,0037;0,0;1,9;292;3,2;0,74;-1,71;0;0;0;39,0;35,1;27,7;34,3;5,9;5,9;5,7;6,3;-10,1;32,4;1439
2022-04-03 20:00:00;4,1;100296;72;0,0037;0,0;1,6;261;2,6;-0,18;-1,59;0;0;0;38,9;35,0;27,8;34,3;5,7;5,9;5,8;6,3;-10,1;32,5;1384
2022-04-03 21:00:00;3,4;100260;76;0,0037;0,0;1,4;243;2,6;-0,61;-1,21;0;0;0;38,8;35,0;27,8;34,3;5,5;5,8;5,8;6,3;-10,1;32,6;1405
2022-04-03 22:00:00;2,9;100232;77;0,0036;0,0;1,3;239;2,6;-0,63;-1,09;0;0;0;38,8;35,0;27,8;34,3;5,4;5,7;5,8;6,3;-10,0;32,7;1398
2022-04-03 23:00:00;0,9;100172;82;0,0033;0,0;1,2;216;2,1;-0,96;-0,68;0;0;0;38,7;35,0;27,9;34,3;5,2;5,6;5,8;6,3;-10,0;33,1;1346
2022-04-04 00:00:00;0,5;100120;84;0,0033;0,0;1,8;208;2,8;-1,59;-0,83;0;0;0;38,6;35,0;27,9;34,3;5,0;5,5;5,8;6,3;-10,0;33,1;1459
2022-04-04 01:00:00;0,0;100065;86;0,0033;0,0;1,7;208;2,6;-1,49;-0,78;0;0;0;38,6;35,0;27,9;34,3;4,8;5,4;5,8;6,3;-10,0;33,2;1427
2022-04-04 02:00:00;0,4;99990;85;0,0033;0,0;1,9;218;3,4;-1,54;-1,1;0;0;0;38,5;34,9;27,9;34,4;4,6;5,3;5,8;6,3;-10,0;33,5;1532
2022-04-04 03:00:00;0,7;99920;83;0,0033;0,0;2,0;225;4,3;-1,34;-1,47;0;0;0;38,5;34,9;28,0;34,4;4,4;5,2;5,8;6,3;-10,0;33,4;1441
2022-04-04 04:00:00;1,1;99858;81;0,0034;0,0;2,2;230;4,6;-1,38;-1,68;0;0;0;38,4;34,9;28,0;34,4;4,2;5,1;5,8;6,3;-10,0;33,3;1490
2022-04-04 05:00:00;1,3;99792;80;0,0034;0,0;2,4;211;5,4;-2,03;-1,24;17;0;0;38,4;34,9;28,0;34,4;4,1;4,9;5,7;6,3;-10,0;33,3;1549
2022-04-04 06:00:00;2,4;99735;78;0,0035;0,0;3,0;216;5,7;-2,35;-1,76;105;0;0;38,3;34,9;28,0;34,4;4,0;4,8;5,7;6,3;-10,0;33,1;1508
2022-04-04 07:00:00;4,5;99660;70;0,0037;0,0;4,1;237;9,1;-2,18;-3,48;256;0;0;38,3;34,9;28,1;34,4;4,1;4,7;5,6;6,3;-10,0;32,8;1488
2022-04-04 08:00:00;5,1;99597;66;0,0036;0,0;5,2;245;9,2;-2,16;-4,73;259;0;0;38,2;34,8;28,1;34,4;4,4;4,7;5,6;6,3;-10,0;32,9;1427
2022-04-04 09:00:00;5,8;99512;60;0,0035;0,0;5,8;245;11,3;-2,39;-5,26;263;0;0;38,2;34,8;28,1;34,4;4,6;4,8;5,5;6,3;-10,0;33,1;1435
2022-04-04 10:00:00;6,3;99412;57;0,0034;0,0;7,6;249;13,0;-2,57;-7,17;232;0;0;38,1;34,8;28,1;34,4;4,9;4,9;5,5;6,3;-10,0;33,2;1495
2022-04-04 11:00:00;6,3;99337;59;0,0035;0,0;8,8;247;15,6;-3,29;-8,17;172;0;0;38,1;34,8;28,1;34,4;5,0;5,0;5,5;6,3;-10,0;33,1;1500
2022-04-04 12:00:00;6,0;99274;63;0,0037;0,0;8,9;248;15,2;-3,32;-8,24;155;0;0;38,0;34,8;28,1;34,4;5,0;5,1;5,5;6,3;-10,0;33,0;1509
2022-04-04 13:00:00;5,5;99186;71;0,004;0,0;7,0;245;12,9;-2,93;-6,36;109;0;0;38,0;34,8;28,1;34,4;5,0;5,1;5,5;6,2;-10,0;33,1;1427
2022-04-04 14:00:00;5,6;99110;74;0,0042;0,0;6,2;243;13,1;-2,77;-5,55;73;0;0;37,9;34,7;28,1;34,5;5,0;5,1;5,5;6,3;-10,0;33,1;1508
2022-04-04 15:00:00;5,3;99050;76;0,0043;0,0;7,1;244;14,1;-3,05;-6,37;43;0;0;37,8;34,7;28,1;34,5;5,0;5,2;5,5;6,2;-10,0;33,4;1591
2022-04-04 16:00:00;5,4;99002;77;0,0043;0,0;8,2;246;15,6;-3,32;-7,55;37;0;0;37,8;34,7;28,1;34,5;5,0;5,2;5,5;6,2;-9,9;33,5;1587
2022-04-04 17:00:00;5,5;98970;78;0,0044;0,0;8,7;247;15,1;-3,37;-8,01;22;0;0;37,8;34,7;28,1;34,5;4,9;5,2;5,5;6,2;-9,9;33,5;1625
2022-04-04 18:00:00;5,6;98948;79;0,0045;0,0;9,0;247;14,5;-3,43;-8,34;1;0;0;37,7;34,7;28,1;34,5;4,9;5,2;5,5;6,2;-9,9;33,8;1657
2022-04-04 19:00:00;5,9;98945;80;0,0047;0,0;9,2;250;14,5;-3,14;-8,61;0;0;0;37,7;34,7;28,1;34,5;4,9;5,2;5,5;6,2;-9,9;34,0;1545
2022-04-04 20:00:00;6,2;98925;81;0,0048;0,0;8,6;248;13,8;-3,14;-7,97;0;0;0;37,6;34,7;28,2;34,5;4,9;5,2;5,5;6,2;-9,9;34,0;1466
2022-04-04 21:00:00;6,6;98892;82;0,005;0,0;6,8;245;12,7;-2,8;-6,16;0;0;0;37,6;34,6;28,2;34,5;5,0;5,2;5,5;6,2;-9,9;33,8;1534
2022-04-04 22:00:00;6,9;98850;82;0,0052;0,0;6,8;246;13,0;-2,74;-6,24;0;0;0;37,5;34,6;28,2;34,5;5,0;5,2;5,5;6,2;-9,9;33,8;1553
2022-04-04 23:00:00;7,1;98847;84;0,0054;0,0;7,2;249;12,1;-2,51;-6,74;0;0;0;37,5;34,6;28,2;34,5;5,1;5,2;5,5;6,2;-9,9;33,8;1502
2022-04-05 00:00:00;7,5;98840;85;0,0056;0,0;8,5;253;12,6;-2,5;-8,13;0;0;0;37,5;34,6;28,2;34,5;5,2;5,2;5,5;6,2;-9,9;33,9;1512
2022-04-05 01:00:00;7,6;98830;87;0,0057;0,0;7,8;254;11,3;-2,06;-7,51;0;0;0;37,4;34,6;28,2;34,5;5,3;5,3;5,5;6,2;-9,9;34,1;1528
2022-04-05 02:00:00;7,8;98818;90;0,006;0,09;6,9;254;9,7;-1,8;-6,62;0;0;0;37,4;34,6;28,2;34,5;5,4;5,3;5,6;6,2;-9,9;33,8;1542
2022-04-05 03:00:00;8,4;98810;89;0,0062;0,39;6,3;256;9,2;-1,5;-6,1;0;0;0;37,4;34,6;28,2;34,6;5,4;5,4;5,6;6,2;-9,9;33,8;1503
2022-04-05 04:00:00;8,4;98822;92;0,0064;0,79;5,9;258;9,0;-1,17;-5,81;0;0;0;37,3;34,6;28,2;34,6;5,6;5,4;5,6;6,2;-9,9;34,1;1547
2022-04-05 05:00:00;8,6;98845;92;0,0065;0,78;5,2;260;7,4;-0,88;-5,1;7;0;0;37,5;34,6;28,2;34,6;5,7;5,5;5,6;6,2;-9,9;34,3;1510
2022-04-05 06:00:00;8,6;98875;93;0,0066;0,19;4,5;256;6,9;-1,01;-4,38;30;0;0;38,0;34,6;28,2;34,6;5,8;5,6;5,6;6,2;-9,9;34,5;1509
2022-04-05 07:00:00;9,0;98900;93;0,0067;0,25;4,8;261;7,2;-0,72;-4,71;55;0;0;38,4;34,7;28,2;34,6;5,9;5,7;5,6;6,2;-9,9;35,1;1537
2022-04-05 08:00:00;9,5;98910;94;0,007;0,19;5,5;269;8,0;-0,07;-5,5;112;0;0;38,6;34,7;28,2;34,6;6,1;5,8;5,7;6,1;-9,9;35,4;1521
2022-04-05 09:00:00;10,4;98942;91;0,0072;0,12;5,7;275;9,0;0,52;-5,63;140;0;0;38,8;34,8;28,2;34,6;6,4;5,9;5,7;6,1;-9,9;35,0;1474
2022-04-05 10:00:00;10,3;98968;91;0,0072;0,22;4,7;268;7,5;-0,1;-4,67;107;0;0;38,9;34,8;28,2;34,6;6,6;6,0;5,7;6,2;-9,9;35,2;1517
2022-04-05 11:00:00;10,7;98967;91;0,0074;0,31;5,0;274;7,6;0,39;-5,0;148;0;0;39,0;34,9;28,2;34,6;6,9;6,2;5,8;6,2;-9,9;35,1;1475
2022-04-05 12:00:00;11,2;98960;87;0,0073;0,03;5,8;272;8,9;0,22;-5,76;128;0;0;39,2;35,0;28,2;34,6;7,1;6,3;5,8;6,2;-9,9;35,0;1444
2022-04-05 13:00:00;11,2;98945;88;0,0074;0,25;5,5;277;8,4;0,72;-5,48;116;0;0;39,2;35,0;28,2;34,6;7,3;6,5;5,9;6,2;-9,9;35,2;1518
2022-04-05 14:00:00;11,8;98915;86;0,0075;0,02;5,7;276;9,2;0,54;-5,62;140;0;0;39,3;35,1;28,2;34,6;7,4;6,6;5,9;6,2;-9,9;35,1;1508
2022-04-05 15:00:00;12,2;98890;83;0,0074;0,0;5,8;266;9,6;-0,37;-5,79;145;0;0;39,4;35,1;28,2;34,6;7,6;6,8;6,0;6,2;-9,9;35,1;1481
2022-04-05 16:00:00;11,8;98902;84;0,0074;0,04;5,0;271;8,5;0,16;-5,0;45;0;0;39,4;35,2;28,2;34,6;7,7;6,9;6,1;6,2;-9,9;35,1;1522
2022-04-05 17:00:00;11,8;98888;84;0,0073;0,0;4,3;261;7,2;-0,66;-4,22;27;0;0;39,3;35,2;28,2;34,6;7,8;7,0;6,1;6,2;-9,9;35,3;1535
2022-04-05 18:00:00;11,3;98880;84;0,0071;0,0;4,4;250;7,5;-1,44;-4,21;2;0;0;39,3;35,3;28,2;34,6;7,7;7,1;6,2;6,2;-9,9;35,3;1482
2022-04-05 19:00:00;11,0;98903;85;0,0071;0,0;3,4;246;6,0;-1,32;-3,12;0;0;0;39,3;35,3;28,2;34,6;7,6;7,2;6,3;6,2;-9,9;35,2;1462
2022-04-05 20:00:00;10,8;98930;78;0,0064;0,0;7,4;272;11,1;0,27;-7,35;0;0;0;39,2;35,3;28,2;34,7;7,6;7,2;6,3;6,2;-9,9;35,3;1578
2022-04-05 21:00:00;10,2;98895;78;0,0061;0,0;7,2;260;12,0;-1,2;-7,06;0;0;0;39,2;35,3;28,3;34,7;7,5;7,2;6,4;6,2;-9,9;35,4;1477
2022-04-05 22:00:00;9,5;98882;78;0,0058;0,0;6,5;259;10,1;-1,21;-6,4;0;0;0;39,1;35,3;28,3;34,7;7,4;7,2;6,5;6,3;-9,9;35,3;1570
2022-04-05 23:00:00;8,7;98866;78;0,0055;0,0;5,1;254;8,3;-1,29;-4,94;0;0;0;39,1;35,2;28,3;34,7;7,2;7,1;6,5;6,3;-9,9;35,4;1537
2022-04-06 00:00:00;8,5;98840;79;0,0055;0,0;3,1;246;6,8;-1,27;-2,86;0;0;0;39,0;35,2;28,3;34,7;7,1;7,1;6,6;6,3;-9,8;35,3;1491
2022-04-06 01:00:00;8,6;98814;79;0,0055;0,0;3,6;246;7,2;-1,4;-3,29;0;0;0;39,0;35,2;28,3;34,7;7,0;7,0;6,6;6,3;-9,8;35,1;1562
2022-04-06 02:00:00;8,5;98792;80;0,0056;0,0;2,3;237;5,2;-1,2;-1,92;0;0;0;38,9;35,2;28,3;34,7;6,9;7,0;6,6;6,3;-9,8;35,2;1562
2022-04-06 03:00:00;8,7;98756;77;0,0055;0,0;3,4;243;7,7;-1,52;-3,1;0;0;0;38,9;35,2;28,4;34,7;6,9;6,9;6,6;6,4;-9,8;35,1;1540
2022-04-06 04:00:00;8,4;98732;76;0,0053;0,0;3,3;246;7,6;-1,35;-3,04;0;0;0;38,8;35,2;28,4;34,7;6,9;6,9;6,6;6,4;-9,8;35,0;1531
2022-04-06 05:00:00;8,4;98720;74;0,0052;0,0;3,7;247;7,6;-1,4;-3,43;12;0;0;38,8;35,2;28,4;34,7;6,8;6,9;6,6;6,4;-9,8;35,1;1548
2022-04-06 06:00:00;8,6;98710;74;0,0052;0,0;5,3;256;8,3;-1,27;-5,13;44;0;0;38,7;35,2;28,4;34,7;6,8;6,8;6,6;6,4;-9,8;35,1;1561
2022-04-06 07:00:00;8,8;98703;72;0,0051;0,0;5,7;261;9,6;-0,77;-5,66;71;0;0;38,7;35,2;28,4;34,7;6,8;6,8;6,6;6,4;-9,8;34,8;1592
2022-04-06 08:00:00;9,0;98683;72;0,0052;0,0;6,3;256;10,8;-1,42;-6,16;126;0;0;38,6;35,2;28,4;34,7;6,9;6,8;6,6;6,4;-9,8;34,7;1543
2022-04-06 09:00:00;9,1;98685;71;0,0052;0,0;6,6;258;10,3;-1,28;-6,44;135;0;0;38,6;35,1;28,4;34,7;7,0;6,8;6,6;6,5;-9,8;34,6;1566
2022-04-06 10:00:00;10,0;98637;70;0,0054;0,0;4,7;238;9,7;-2,48;-3,97;333;0;0;38,5;35,1;28,4;34,8;7,1;6,9;6,6;6,5;-9,8;34,2;1558
2022-04-06 11:00:00;10,7;98580;69;0,0056;0,0;6,2;243;11,9;-2,71;-5,56;352;0;0;38,4;35,1;28,4;34,8;7,5;6,9;6,6;6,5;-9,8;34,2;1571
2022-04-06 12:00:00;11,1;98520;69;0,0057;0,0;6,5;244;11,6;-2,82;-5,88;485;0;0;38,4;35,1;28,4;34,8;7,8;7,1;6,6;6,5;-9,8;34,1;1575
2022-04-06 13:00:00;11,1;98448;67;0,0056;0,0;6,3;240;11,9;-2,96;-5,54;325;0;0;38,3;35,0;28,4;34,8;8,2;7,3;6,7;6,5;-9,8;33,6;1592
2022-04-06 14:00:00;11,5;98370;63;0,0054;0,0;4,6;236;9,8;-2,5;-3,88;213;0;0;38,2;35,0;28,4;34,8;8,3;7,5;6,7;6,5;-9,8;33,4;1640
2022-04-06 15:00:00;11,4;98330;65;0,0056;0,0;5,1;234;11,5;-2,89;-4,19;186;0;0;38,1;35,0;28,4;34,8;8,3;7,6;6,7;6,5;-9,8;33,5;1603
2022-04-06 16:00:00;11,1;98270;67;0,0056;0,0;4,4;220;9,6;-3,33;-2,84;130;0;0;38,1;35,0;28,4;34,8;8,3;7,7;6,8;6,5;-9,8;33,5;1631
2022-04-06 17:00:00;11,1;98188;67;0,0056;0,0;4,6;212;9,4;-3,92;-2,43;81;0;0;38,0;35,0;28,4;34,8;8,2;7,7;6,8;6,5;-9,8;33,5;1631
2022-04-06 18:00:00;10,8;98142;69;0,0057;0,0;4,1;223;9,8;-2,96;-2,84;3;0;0;37,9;34,9;28,4;34,8;8,1;7,7;6,9;6,6;-9,8;33,4;1694
2022-04-06 19:00:00;10,5;98118;73;0,0059;0,0;3,8;219;9,3;-2,96;-2,46;0;0;0;37,9;34,9;28,4;34,8;7,9;7,7;7,0;6,6;-9,8;33,5;1624
2022-04-06 20:00:00;10,4;98087;73;0,0059;0,0;3,6;222;8,6;-2,62;-2,45;0;0;0;37,8;34,9;28,5;34,8;7,8;7,7;7,0;6,6;-9,8;33,5;1715
2022-04-06 21:00:00;10,1;98050;76;0,006;0,0;3,7;223;8,5;-2,71;-2,49;0;0;0;37,8;34,9;28,5;34,8;7,7;7,6;7,0;6,6;-9,8;33,5;1741
2022-04-06 22:00:00;9,8;97970;78;0,006;0,0;3,7;213;7,8;-3,09;-2,05;0;0;0;37,8;34,9;28,5;34,8;7,6;7,6;7,1;6,6;-9,8;33,3;1694
2022-04-06 23:00:00;10,0;97898;78;0,0061;0,2;4,1;214;9,1;-3,42;-2,35;0;0;0;37,7;34,9;28,5;34,8;7,6;7,6;7,1;6,6;-9,8;33,1;1677
2022-04-07 00:00:00;9,0;97828;80;0,0059;0,04;4,1;236;9,9;-2,23;-3,41;0;0;0;37,7;34,9;28,5;34,8;7,6;7,5;7,1;6,7;-9,8;33,1;1767
2022-04-07 01:00:00;9,0;97730;79;0,0058;0,0;3,1;238;6,8;-1,6;-2,65;0;0;0;37,7;34,8;28,5;34,8;7,4;7,5;7,1;6,7;-9,8;33,1;1782
2022-04-07 02:00:00;9,2;97655;79;0,0059;0,02;3,0;226;7,2;-2,05;-2,14;0;0;0;37,6;34,8;28,5;34,8;7,4;7,4;7,1;6,7;-9,8;33,0;1656
2022-04-07 03:00:00;9,2;97562;82;0,0061;0,0;3,4;224;6,7;-2,46;-2,21;0;0;0;37,6;34,8;28,5;34,8;7,3;7,4;7,1;6,7;-9,8;33,1;1698
2022-04-07 04:00:00;9,3;97412;82;0,0061;0,02;4,9;205;8,7;-4,47;-2,11;0;0;0;37,6;34,8;28,5;34,9;7,3;7,4;7,1;6,7;-9,8;33,1;1729
2022-04-07 05:00:00;9,8;97302;80;0,0062;0,0;4,7;210;9,4;-4,08;-2,37;11;0;0;37,5;34,8;28,5;34,9;7,3;7,3;7,1;6,7;-9,8;33,1;1771
2022-04-07 06:00:00;9,6;97170;80;0,0062;0,02;5,0;212;9,8;-4,24;-2,6;51;0;0;37,5;34,8;28,5;34,9;7,3;7,3;7,1;6,7;-9,8;33,1;1730
2022-04-07 07:00:00;10,2;96990;82;0,0066;0,02;6,4;205;11,0;-5,77;-2,76;138;0;0;37,5;34,8;28,5;34,9;7,4;7,3;7,1;6,7;-9,8;33,1;1830
2022-04-07 08:00:00;11,0;96852;83;0,007;0,38;6,0;220;12,3;-4,56;-3,82;213;0;0;37,4;34,8;28,5;34,9;7,6;7,3;7,1;6,7;-9,8;33,1;1768
2022-04-07 09:00:00;12,4;96728;84;0,0078;0,09;6,3;233;15,8;-3,73;-5,02;424;0;0;37,4;34,8;28,5;34,9;8,0;7,4;7,1;6,8;-9,8;32,8;1892
2022-04-07 10:00:00;10,6;96715;93;0,0076;2,38;7,0;248;13,8;-2,26;-6,46;129;0;0;38,1;34,8;28,5;34,9;8,4;7,6;7,1;6,8;-9,8;33,1;1842
2022-04-07 11:00:00;10,4;96805;74;0,006;0,24;12,3;273;16,9;0,92;-12,18;287;0;0;41,3;37,0;28,5;34,9;8,5;7,8;7,1;6,8;-9,8;33,1;1808
2022-04-07 12:00:00;11,8;96880;57;0,0051;0,0;11,1;266;17,5;-0,64;-11,04;560;0;0;40,6;36,8;28,5;34,9;8,6;7,9;7,1;6,8;-9,8;33,3;1771
2022-04-07 13:00:00;12,4;96960;50;0,0047;0,0;11,9;267;18,5;-0,41;-11,92;534;0;0;40,3;36,6;28,6;34,9;8,9;8,0;7,2;6,8;-9,8;33,6;1793
2022-04-07 14:00:00;12,2;97028;48;0,0044;0,0;12,0;264;19,2;-1,12;-11,93;393;0;0;40,2;36,5;28,6;34,9;8,9;8,1;7,2;6,8;-9,8;33,8;1785
2022-04-07 15:00:00;10,6;97130;53;0,0043;0,0;10,5;273;17,4;0,5;-10,4;121;0;0;40,0;36,4;28,7;34,9;8,8;8,2;7,3;6,8;-9,8;33,5;1767
2022-04-07 16:00:00;9,2;97210;60;0,0044;0,05;12,7;266;19,9;-0,53;-12,62;121;0;0;39,8;36,3;28,7;34,9;8,5;8,2;7,3;6,8;-9,8;33,1;1779
2022-04-07 17:00:00;9,4;97288;58;0,0044;0,0;10,6;258;16,4;-2,24;-10,35;86;0;0;39,6;36,2;28,7;34,9;8,2;8,1;7,4;6,8;-9,7;33,0;1772
2022-04-07 18:00:00;9,3;97385;56;0,0042;0,0;10,4;259;16,3;-1,89;-10,27;6;0;0;39,5;36,1;28,8;34,9;7,9;8,0;7,4;6,8;-9,7;32,8;1762
2022-04-07 19:00:00;9,2;97495;56;0,0042;0,0;11,0;260;17,0;-1,75;-10,84;0;0;0;39,3;36,0;28,8;35,0;7,6;7,9;7,4;6,8;-9,7;32,5;1717
2022-04-07 20:00:00;8,7;97600;59;0,0043;0,0;11,6;260;18,8;-1,96;-11,45;0;0;0;39,2;35,9;28,8;35,0;7,4;7,8;7,4;6,9;-9,7;32,8;1847
2022-04-07 21:00:00;8,4;97698;62;0,0043;0,0;11,7;261;18,7;-1,7;-11,54;0;0;0;39,1;35,8;28,8;35,0;7,2;7,6;7,4;6,9;-9,7;32,6;1706
2022-04-07 22:00:00;6,6;97840;73;0,0046;0,22;11,9;263;18,4;-1,26;-11,86;0;1;3;39,1;35,8;28,8;35,0;7,0;7,5;7,4;6,9;-9,7;32,8;1712
2022-04-07 23:00:00;5,2;97960;82;0,0046;0,17;9,8;261;14,4;-1,23;-9,67;0;0;0;39,0;35,7;28,8;35,0;6,9;7,4;7,4;6,9;-9,7;32,9;1631
2022-04-08 00:00:00;5,4;98040;80;0,0046;0,0;6,8;262;9,7;-0,91;-6,71;0;0;0;39,0;35,7;28,8;35,0;6,7;7,3;7,4;6,9;-9,7;32,7;1674
2022-04-08 01:00:00;5,5;98103;80;0,0046;0,0;6,8;267;11,6;-0,36;-6,78;0;0;0;39,0;35,7;28,8;35,0;6,5;7,1;7,3;6,9;-9,6;32,8;1697
2022-04-08 02:00:00;5,2;98168;81;0,0045;0,0;5,5;272;8,3;0,18;-5,51;0;0;0;39,0;35,7;28,8;35,0;6,4;7,0;7,3;6,9;-9,7;33,0;1695
2022-04-08 03:00:00;4,9;98212;82;0,0045;0,0;4,4;268;7,5;-0,07;-4,4;0;0;0;38,9;35,7;28,8;35,1;6,3;6,9;7,2;6,9;-9,6;33,0;1765
2022-04-08 04:00:00;4,4;98250;83;0,0044;0,0;2,9;236;6,0;-1,16;-2,32;0;0;0;38,9;35,7;28,8;35,1;6,2;6,8;7,2;7,0;-9,6;32,9;1675
2022-04-08 05:00:00;4,0;98245;87;0,0045;0,0;1,5;210;2,5;-1,34;-0,74;34;0;0;38,8;35,6;28,8;35,1;6,1;6,7;7,1;7,0;-9,6;32,9;1685
2022-04-08 06:00:00;5,1;98230;85;0,0047;0,0;1,7;223;3,0;-1,21;-0,97;79;0;0;38,8;35,6;28,8;35,1;6,1;6,6;7,1;7,0;-9,6;32,9;1654
2022-04-08 07:00:00;5,6;98216;84;0,0048;0,0;2,0;233;4,0;-1,2;-1,6;123;0;0;38,8;35,6;28,9;35,1;6,2;6,6;7,0;6,9;-9,6;33,1;1547
2022-04-08 08:00:00;5,8;98178;83;0,0049;0,0;2,4;208;4,0;-1,99;-0,99;169;0;0;38,7;35,6;28,8;35,1;6,4;6,6;7,0;7,0;-9,6;32,9;1693
2022-04-08 09:00:00;6,3;98100;82;0,0049;0,0;1,4;193;2,8;-1,37;-0,37;179;0;0;38,7;35,6;28,9;35,1;6,6;6,6;6,9;7,0;-9,6;33,2;1641
2022-04-08 10:00:00;6,6;98082;80;0,0049;0,0;1,1;232;2,6;-0,63;-0,74;115;0;0;38,6;35,5;28,9;35,1;6,9;6,7;6,9;7,0;-9,6;33,2;1639
2022-04-08 11:00:00;5,4;97998;82;0,0047;0,17;3,2;253;6,3;-0,6;-2,81;138;0;0;38,6;35,5;28,9;35,1;7,0;6,8;6,9;6,9;-9,6;33,4;1687
2022-04-08 12:00:00;5,1;97945;83;0,0046;0,0;2,4;243;4,2;-1,03;-2,13;140;0;0;38,5;35,5;28,9;35,1;7,0;6,9;6,9;7,0;-9,6;33,2;1618
2022-04-08 13:00:00;5,0;97908;79;0,0044;0,0;2,8;214;4,9;-2,23;-1,48;123;0;0;38,5;35,5;28,9;35,1;7,1;6,9;6,9;6,9;-9,6;33,2;1603
2022-04-08 14:00:00;5,1;97895;75;0,0042;0,0;1,5;188;3,2;-1,29;-0,3;119;0;0;38,4;35,5;28,9;35,1;7,1;7,0;6,9;6,9;-9,6;33,3;1651